Location: Natural Bridges National Monument
(37.6093°N, 109.9767°W)
Time: 05:28:40
(UTC-06:00)

Cosmos 1727 Rocket - Visible Passes

Search period start: 31 July 2014 00:00
Search period end: 10 August 2014 00:00
Orbit: 961 x 996 km, 82.9° (Epoch: 30 July)

Date Brightness Start Highest point End Pass type
(mag) Time Alt. Az. Time Alt. Az. Time Alt. Az.
31 Jul 4.2 00:07:50 60° W 00:08:04 60° W 00:14:14 10° N visible
31 Jul 4.7 22:49:09 34° E 22:49:18 34° E 22:54:48 10° NNE visible
01 Aug 5.2 00:33:52 31° W 00:34:40 32° WNW 00:40:10 10° NNW visible
01 Aug 3.9 23:15:09 64° ESE 23:15:29 65° E 23:21:40 10° NNE visible
02 Aug 6.0 00:59:52 16° W 01:01:28 17° WNW 01:05:23 10° NNW visible
02 Aug 5.5 21:56:26 15° E 21:57:10 16° E 22:00:40 10° NE visible
02 Aug 4.1 23:41:08 62° WSW 23:41:52 67° W 23:48:05 10° N visible
03 Aug 4.8 22:22:23 30° E 22:23:09 31° E 22:28:29 10° NNE visible
04 Aug 5.1 00:07:06 32° WSW 00:08:25 36° WNW 00:14:07 10° N visible
04 Aug 4.0 22:48:18 52° SE 22:49:19 59° E 22:55:26 10° NNE visible
05 Aug 6.0 00:33:01 16° W 00:35:12 19° WNW 00:39:30 10° NNW visible
05 Aug 5.6 21:29:29 13° E 21:31:04 14° E 21:34:03 10° NE visible
05 Aug 4.0 23:14:12 54° SSW 23:15:40 75° W 23:21:56 10° N visible
06 Aug 4.9 21:55:21 24° ESE 21:57:01 28° E 22:02:09 10° NNE visible
06 Aug 5.0 23:40:03 30° WSW 23:42:12 39° WNW 23:48:02 10° N visible
07 Aug 4.1 22:21:09 38° SE 22:23:09 53° E 22:29:12 10° NNE visible
08 Aug 6.0 00:05:51 15° WSW 00:08:56 21° WNW 00:13:34 10° NNW visible
08 Aug 5.7 21:02:38 10° ESE 21:04:58 12° E 21:07:18 10° ENE visible
08 Aug 4.0 22:46:54 38° SSW 22:49:28 83° W 22:55:46 10° N visible
09 Aug 6.6 00:34:39 10° WNW 00:35:53 11° WNW 00:37:08 10° NW visible
09 Aug 5.1 21:27:55 17° ESE 21:30:53 25° E 21:35:48 10° NNE visible
09 Aug 4.9 23:12:36 24° SW 23:15:58 44° WNW 23:21:56 10° N visible
